Starlink 5677

operational
NORAD ID: 55463 Int'l Des: 2023-015 Owner: SPXS Country: US Constellation: starlink
LEOCIRCULAR

About Starlink 5677

Description loading...

Live Position

Loading 3D Globe...

Upcoming Passes

Altitude History

Altitude vs Time

uPlot chart will show altitude changes over time

Two-Line Element Set

1 55463U 23015Q 25302.72738770 -.00000081 00000-0 90922-5 0 9994
2 55463 43.0051 317.6231 0000924 260.1258 99.9480 15.02536506151054
Epoch: Oct 29, 2025 • Age: 48 hours

Current Status

Altitude 562.1 km
Velocity 7.58 km/s
Sub-Earth Point -16.29°S, 9.83°W
Launch Date Feb 2, 2023
Age 2.7 years
Type internet

Technical Details

Classification Payload
Mass 305.00 kg
Dry Mass 290.00 kg
Total Mass 305.00 kg
Length 0.20 m
Diameter 2.80 m
Span 9.00 m
Shape Box + pan
Manufacturer SPXS
Bus Type Starlink
Phase Status In Orbit
Owner/State SPXS/US

Large Constellations

Loading constellations...